Time,TemperatureF,DewpointF,PressureIn,WindDirection,WindDirectionDegrees,WindSpeedMPH,WindSpeedGustMPH,Humidity,HourlyPrecipIn,Conditions,Clouds,dailyrainin,SoftwareType,DateUTC
2013-03-01 00:02:00,-999.0,-99.9,29.47,SSE,168,7.0,9.0,-999,-99.99,,,-99.99,,2013-03-01 09:02:00,
2013-03-01 00:12:00,-999.0,-99.9,29.48,South,175,5.0,8.0,-999,-99.99,,,-99.99,,2013-03-01 09:12:00,
2013-03-01 00:22:00,32.0,-99.9,29.48,South,176,4.0,9.0,-999,-99.99,,,-99.99,,2013-03-01 09:22:00,
2013-03-01 00:32:00,32.0,-99.9,29.48,SSW,204,5.0,8.0,-999,-99.99,,,-99.99,,2013-03-01 09:32:00,
2013-03-01 00:42:00,33.0,-99.9,29.49,SSW,199,6.0,9.0,-999,-99.99,,,-99.99,,2013-03-01 09:42:00,
2013-03-01 00:53:00,-999.0,-99.9,29.49,SE,142,1.0,8.0,-999,-99.99,,,-99.99,,2013-03-01 09:53:00,
2013-03-01 01:02:00,33.0,-99.9,29.49,WSW,239,5.0,9.0,-999,-99.99,,,-99.99,,2013-03-01 10:02:00,
2013-03-01 01:12:00,33.0,-99.9,29.49,South,184,6.0,10.0,-999,-99.99,,,-99.99,,2013-03-01 10:12:00,
2013-03-01 01:22:00,33.0,-99.9,29.50,SSW,211,8.0,17.0,-999,-99.99,,,-99.99,,2013-03-01 10:22:00,
2013-03-01 01:32:00,33.0,-99.9,29.50,WSW,239,10.0,15.0,-999,-99.99,,,-99.99,,2013-03-01 10:32:00,
2013-03-01 01:42:00,33.0,-99.9,29.51,SW,233,8.0,14.0,-999,-99.99,,,-99.99,,2013-03-01 10:42:00,
2013-03-01 01:53:00,33.0,-99.9,29.51,WSW,245,10.0,13.0,-999,-99.99,,,-99.99,,2013-03-01 10:53:00,
2013-03-01 02:02:00,33.0,-99.9,29.51,WSW,244,8.0,13.0,-999,-99.99,,,-99.99,,2013-03-01 11:02:00,
2013-03-01 02:12:00,33.0,-99.9,29.52,WSW,252,16.0,19.0,-999,-99.99,,,-99.99,,2013-03-01 11:12:00,
2013-03-01 02:23:00,33.0,-99.9,29.52,WSW,253,10.0,15.0,-999,-99.99,,,-99.99,,2013-03-01 11:23:00,
2013-03-01 02:32:00,33.0,-99.9,29.52,West,266,11.0,14.0,-999,-99.99,,,-99.99,,2013-03-01 11:32:00,
2013-03-01 02:42:00,-999.0,-99.9,29.53,SSE,157,3.0,9.0,-999,-99.99,,,-99.99,,2013-03-01 11:42:00,
2013-03-01 02:53:00,-999.0,-99.9,29.53,SE,133,2.0,5.0,-999,-99.99,,,-99.99,,2013-03-01 11:53:00,
2013-03-01 03:02:00,32.0,-99.9,29.53,West,275,3.0,10.0,-999,-99.99,,,-99.99,,2013-03-01 12:02:00,
2013-03-01 03:11:00,-999.0,-99.9,29.54,SSE,148,6.0,8.0,-999,-99.99,,,-99.99,,2013-03-01 12:11:00,
2013-03-01 03:22:00,-999.0,-99.9,29.54,SE,146,4.0,6.0,-999,-99.99,,,-99.99,,2013-03-01 12:22:00,
2013-03-01 03:33:00,31.0,-99.9,29.54,SSW,197,4.0,5.0,-999,-99.99,,,-99.99,,2013-03-01 12:33:00,
2013-03-01 03:42:00,-999.0,-99.9,29.54,South,185,3.0,6.0,-999,-99.99,,,-99.99,,2013-03-01 12:42:00,
2013-03-01 03:52:00,-999.0,-99.9,29.55,WSW,239,2.0,4.0,-999,-99.99,,,-99.99,,2013-03-01 12:52:00,
2013-03-01 04:01:00,31.0,-99.9,29.55,South,182,2.0,3.0,-999,-99.99,,,-99.99,,2013-03-01 13:01:00,
2013-03-01 04:12:00,-999.0,-99.9,29.55,North,3,3.0,3.0,-999,-99.99,,,-99.99,,2013-03-01 13:12:00,
2013-03-01 04:22:00,-999.0,-99.9,29.56,SE,139,2.0,4.0,-999,-99.99,,,-99.99,,2013-03-01 13:22:00,
2013-03-01 04:32:00,30.0,-99.9,29.56,North,9,3.0,4.0,-999,-99.99,,,-99.99,,2013-03-01 13:32:00,
2013-03-01 04:42:00,-999.0,-99.9,29.57,NNE,30,1.0,4.0,-999,-99.99,,,-99.99,,2013-03-01 13:42:00,
2013-03-01 04:52:00,-999.0,-99.9,29.57,NE,42,0.0,4.0,-999,-99.99,,,-99.99,,2013-03-01 13:52:00,
2013-03-01 05:02:00,-999.0,-99.9,29.57,North,360,1.0,2.0,-999,-99.99,,,-99.99,,2013-03-01 14:02:00,
2013-03-01 05:32:00,29.0,-99.9,29.58,SSE,165,3.0,5.0,-999,-99.99,,,-99.99,,2013-03-01 14:32:00,
2013-03-01 05:42:00,-999.0,-99.9,29.58,South,177,3.0,5.0,-999,-99.99,,,-99.99,,2013-03-01 14:42:00,
2013-03-01 05:52:00,-999.0,-99.9,29.59,SSE,159,4.0,4.0,-999,-99.99,,,-99.99,,2013-03-01 14:52:00,
2013-03-01 06:02:00,29.0,-99.9,29.59,SSE,159,3.0,4.0,-999,-99.99,,,-99.99,,2013-03-01 15:02:00,
2013-03-01 06:11:00,-999.0,-99.9,29.59,SSE,161,1.0,2.0,-999,-99.99,,,-99.99,,2013-03-01 15:11:00,
2013-03-01 06:21:00,-999.0,-99.9,29.60,SE,141,1.0,2.0,-999,-99.99,,,-99.99,,2013-03-01 15:21:00,
2013-03-01 06:52:00,-999.0,-99.9,29.60,SE,137,2.0,2.0,-999,-99.99,,,-99.99,,2013-03-01 15:52:00,
2013-03-01 07:01:00,27.0,-99.9,29.60,WNW,295,0.0,1.0,-999,-99.99,,,-99.99,,2013-03-01 16:01:00,
2013-03-01 07:11:00,-999.0,-99.9,29.61,SE,132,0.0,1.0,-999,-99.99,,,-99.99,,2013-03-01 16:11:00,
2013-03-01 07:32:00,27.0,-99.9,29.62,SSE,158,2.0,2.0,-999,-99.99,,,-99.99,,2013-03-01 16:32:00,
2013-03-01 07:42:00,-999.0,-99.9,29.62,SSE,162,2.0,3.0,-999,-99.99,,,-99.99,,2013-03-01 16:42:00,
2013-03-01 07:52:00,26.0,-99.9,29.62,SSE,163,4.0,5.0,-999,-99.99,,,-99.99,,2013-03-01 16:52:00,
2013-03-01 08:01:00,-999.0,-99.9,29.62,SSE,166,3.0,3.0,-999,-99.99,,,-99.99,,2013-03-01 17:01:00,
2013-03-01 08:11:00,-999.0,-99.9,29.63,SSE,163,2.0,4.0,-999,-99.99,,,-99.99,,2013-03-01 17:11:00,
2013-03-01 08:21:00,-999.0,-99.9,29.63,SSE,156,4.0,5.0,-999,-99.99,,,-99.99,,2013-03-01 17:21:00,
2013-03-01 08:32:00,26.0,-99.9,29.63,South,171,3.0,5.0,-999,-99.99,,,-99.99,,2013-03-01 17:32:00,
2013-03-01 08:52:00,-999.0,-99.9,29.64,SE,124,2.0,6.0,-999,-99.99,,,-99.99,,2013-03-01 17:52:00,
2013-03-01 09:02:00,27.0,-99.9,29.65,ENE,75,0.0,2.0,-999,-99.99,,,-99.99,,2013-03-01 18:02:00,
2013-03-01 09:12:00,-999.0,-99.9,29.65,SE,127,4.0,6.0,-999,-99.99,,,-99.99,,2013-03-01 18:12:00,
2013-03-01 09:22:00,-999.0,-99.9,29.65,SSE,147,4.0,5.0,-999,-99.99,,,-99.99,,2013-03-01 18:22:00,
2013-03-01 09:32:00,29.0,-99.9,29.65,SSE,149,4.0,4.0,-999,-99.99,,,-99.99,,2013-03-01 18:32:00,
2013-03-01 09:42:00,-999.0,-99.9,29.66,SE,130,2.0,4.0,-999,-99.99,,,-99.99,,2013-03-01 18:42:00,
2013-03-01 09:52:00,-999.0,-99.9,29.66,NE,39,3.0,4.0,-999,-99.99,,,-99.99,,2013-03-01 18:52:00,
2013-03-01 10:02:00,31.0,-99.9,29.67,East,99,2.0,4.0,-999,-99.99,,,-99.99,,2013-03-01 19:02:00,
2013-03-01 10:11:00,-999.0,-99.9,29.67,SSE,151,1.0,3.0,-999,-99.99,,,-99.99,,2013-03-01 19:11:00,
2013-03-01 10:22:00,-999.0,-99.9,29.67,South,188,4.0,6.0,-999,-99.99,,,-99.99,,2013-03-01 19:22:00,
2013-03-01 10:32:00,31.0,-99.9,29.67,South,175,3.0,5.0,-999,-99.99,,,-99.99,,2013-03-01 19:32:00,
2013-03-01 10:42:00,31.0,-99.9,29.67,South,175,3.0,5.0,-999,-99.99,,,-99.99,,2013-03-01 19:42:00,
2013-03-01 10:52:00,-999.0,-99.9,29.68,South,178,1.0,4.0,-999,-99.99,,,-99.99,,2013-03-01 19:52:00,
2013-03-01 11:01:00,32.0,-99.9,29.69,South,181,1.0,2.0,-999,-99.99,,,-99.99,,2013-03-01 20:01:00,
2013-03-01 11:11:00,-999.0,-99.9,29.69,South,175,3.0,3.0,-999,-99.99,,,-99.99,,2013-03-01 20:11:00,
2013-03-01 11:22:00,32.0,-99.9,29.70,South,172,2.0,4.0,-999,-99.99,,,-99.99,,2013-03-01 20:22:00,
2013-03-01 11:32:00,34.0,-99.9,29.70,South,181,1.0,2.0,-999,-99.99,,,-99.99,,2013-03-01 20:32:00,
2013-03-01 11:42:00,33.0,-99.9,29.70,SSW,195,2.0,4.0,-999,-99.99,,,-99.99,,2013-03-01 20:42:00,
2013-03-01 11:52:00,33.0,-99.9,29.71,South,180,2.0,3.0,-999,-99.99,,,-99.99,,2013-03-01 20:52:00,
2013-03-01 12:02:00,33.0,-99.9,29.71,South,179,3.0,4.0,-999,-99.99,,,-99.99,,2013-03-01 21:02:00,
2013-03-01 12:11:00,34.0,-99.9,29.72,South,184,3.0,4.0,-999,-99.99,,,-99.99,,2013-03-01 21:11:00,
2013-03-01 12:22:00,35.0,-99.9,29.72,South,182,2.0,4.0,-999,-99.99,,,-99.99,,2013-03-01 21:22:00,
2013-03-01 12:32:00,34.0,-99.9,29.72,South,177,4.0,4.0,-999,-99.99,,,-99.99,,2013-03-01 21:32:00,
2013-03-01 12:42:00,34.0,-99.9,29.72,South,174,4.0,5.0,-999,-99.99,,,-99.99,,2013-03-01 21:42:00,
2013-03-01 12:52:00,35.0,-99.9,29.73,South,174,4.0,4.0,-999,-99.99,,,-99.99,,2013-03-01 21:52:00,
2013-03-01 13:01:00,35.0,-99.9,29.73,South,172,4.0,4.0,-999,-99.99,,,-99.99,,2013-03-01 22:01:00,
2013-03-01 13:12:00,35.0,-99.9,29.74,South,170,5.0,5.0,-999,-99.99,,,-99.99,,2013-03-01 22:12:00,
2013-03-01 13:22:00,36.0,-99.9,29.74,South,174,4.0,5.0,-999,-99.99,,,-99.99,,2013-03-01 22:22:00,
2013-03-01 13:32:00,36.0,-99.9,29.74,South,179,5.0,5.0,-999,-99.99,,,-99.99,,2013-03-01 22:32:00,
2013-03-01 13:42:00,36.0,-99.9,29.74,South,178,5.0,5.0,-999,-99.99,,,-99.99,,2013-03-01 22:42:00,
2013-03-01 13:52:00,36.0,-99.9,29.74,South,176,6.0,6.0,-999,-99.99,,,-99.99,,2013-03-01 22:52:00,
2013-03-01 14:01:00,36.0,-99.9,29.75,South,174,5.0,6.0,-999,-99.99,,,-99.99,,2013-03-01 23:01:00,
2013-03-01 14:11:00,37.0,-99.9,29.75,South,176,4.0,5.0,-999,-99.99,,,-99.99,,2013-03-01 23:11:00,
2013-03-01 14:21:00,37.0,-99.9,29.75,SSE,165,4.0,5.0,-999,-99.99,,,-99.99,,2013-03-01 23:21:00,
2013-03-01 14:32:00,37.0,-99.9,29.75,South,171,4.0,6.0,-999,-99.99,,,-99.99,,2013-03-01 23:32:00,
2013-03-01 14:42:00,37.0,-99.9,29.75,South,171,5.0,6.0,-999,-99.99,,,-99.99,,2013-03-01 23:42:00,
2013-03-01 14:52:00,37.0,-99.9,29.76,South,174,5.0,6.0,-999,-99.99,,,-99.99,,2013-03-01 23:52:00,
2013-03-01 15:02:00,37.0,-99.9,29.76,South,175,5.0,6.0,-999,-99.99,,,-99.99,,2013-03-02 00:02:00,
2013-03-01 15:12:00,38.0,-99.9,29.76,South,178,4.0,6.0,-999,-99.99,,,-99.99,,2013-03-02 00:12:00,
2013-03-01 15:22:00,38.0,-99.9,29.77,South,173,4.0,4.0,-999,-99.99,,,-99.99,,2013-03-02 00:22:00,
2013-03-01 15:32:00,38.0,-99.9,29.77,South,174,4.0,5.0,-999,-99.99,,,-99.99,,2013-03-02 00:32:00,
2013-03-01 15:42:00,38.0,-99.9,29.77,South,176,4.0,5.0,-999,-99.99,,,-99.99,,2013-03-02 00:42:00,
2013-03-01 15:52:00,40.0,-99.9,29.77,South,185,1.0,3.0,-999,-99.99,,,-99.99,,2013-03-02 00:52:00,
2013-03-01 16:01:00,39.0,-99.9,29.78,SSW,202,2.0,2.0,-999,-99.99,,,-99.99,,2013-03-02 01:01:00,
2013-03-01 16:11:00,40.0,-99.9,29.78,SSW,202,2.0,2.0,-999,-99.99,,,-99.99,,2013-03-02 01:11:00,
2013-03-01 16:21:00,40.0,-99.9,29.78,SSE,168,1.0,3.0,-999,-99.99,,,-99.99,,2013-03-02 01:21:00,
2013-03-01 16:32:00,40.0,-99.9,29.79,SSE,150,1.0,3.0,-999,-99.99,,,-99.99,,2013-03-02 01:32:00,
2013-03-01 16:42:00,39.0,-99.9,29.79,South,185,2.0,3.0,-999,-99.99,,,-99.99,,2013-03-02 01:42:00,
2013-03-01 16:52:00,39.0,-99.9,29.79,South,179,2.0,2.0,-999,-99.99,,,-99.99,,2013-03-02 01:52:00,
2013-03-01 17:01:00,40.0,-99.9,29.79,SSE,157,1.0,2.0,-999,-99.99,,,-99.99,,2013-03-02 02:01:00,
2013-03-01 17:11:00,39.0,-99.9,29.79,South,174,1.0,2.0,-999,-99.99,,,-99.99,,2013-03-02 02:11:00,
2013-03-01 17:22:00,38.0,-99.9,29.80,ESE,105,2.0,3.0,-999,-99.99,,,-99.99,,2013-03-02 02:22:00,
2013-03-01 17:32:00,38.0,-99.9,29.80,ESE,108,1.0,2.0,-999,-99.99,,,-99.99,,2013-03-02 02:32:00,
2013-03-01 17:42:00,37.0,-99.9,29.80,SW,215,2.0,5.0,-999,-99.99,,,-99.99,,2013-03-02 02:42:00,
2013-03-01 17:52:00,37.0,-99.9,29.81,SSE,168,3.0,4.0,-999,-99.99,,,-99.99,,2013-03-02 02:52:00,
2013-03-01 18:02:00,37.0,-99.9,29.81,South,173,3.0,4.0,-999,-99.99,,,-99.99,,2013-03-02 03:02:00,
2013-03-01 18:11:00,37.0,-99.9,29.81,SSE,166,2.0,3.0,-999,-99.99,,,-99.99,,2013-03-02 03:11:00,
2013-03-01 18:22:00,36.0,-99.9,29.82,South,173,4.0,5.0,-999,-99.99,,,-99.99,,2013-03-02 03:22:00,
2013-03-01 18:32:00,35.0,-99.9,29.82,South,170,5.0,5.0,-999,-99.99,,,-99.99,,2013-03-02 03:32:00,
2013-03-01 18:42:00,34.0,-99.9,29.82,SSE,161,5.0,7.0,-999,-99.99,,,-99.99,,2013-03-02 03:42:00,
2013-03-01 18:53:00,34.0,-99.9,29.83,South,180,7.0,9.0,-999,-99.99,,,-99.99,,2013-03-02 03:53:00,
2013-03-01 19:02:00,33.0,-99.9,29.83,SE,141,3.0,7.0,-999,-99.99,,,-99.99,,2013-03-02 04:02:00,
2013-03-01 19:12:00,32.0,-99.9,29.83,SE,145,3.0,5.0,-999,-99.99,,,-99.99,,2013-03-02 04:12:00,
2013-03-01 19:22:00,33.0,-99.9,29.84,South,176,5.0,6.0,-999,-99.99,,,-99.99,,2013-03-02 04:22:00,
2013-03-01 19:32:00,32.0,-99.9,29.84,SSE,149,3.0,6.0,-999,-99.99,,,-99.99,,2013-03-02 04:32:00,
2013-03-01 19:42:00,31.0,-99.9,29.84,SSE,147,3.0,5.0,-999,-99.99,,,-99.99,,2013-03-02 04:42:00,
2013-03-01 19:52:00,-999.0,-99.9,29.85,SSE,156,4.0,5.0,-999,-99.99,,,-99.99,,2013-03-02 04:52:00,
2013-03-01 20:02:00,31.0,-99.9,29.85,SSE,164,6.0,7.0,-999,-99.99,,,-99.99,,2013-03-02 05:02:00,
2013-03-01 20:12:00,-999.0,-99.9,29.85,South,175,7.0,8.0,-999,-99.99,,,-99.99,,2013-03-02 05:12:00,
2013-03-01 20:23:00,-999.0,-99.9,29.86,SSE,148,4.0,7.0,-999,-99.99,,,-99.99,,2013-03-02 05:23:00,
2013-03-01 20:32:00,30.0,-99.9,29.86,SSE,150,4.0,5.0,-999,-99.99,,,-99.99,,2013-03-02 05:32:00,
2013-03-01 20:42:00,-999.0,-99.9,29.86,South,177,4.0,5.0,-999,-99.99,,,-99.99,,2013-03-02 05:42:00,
2013-03-01 20:52:00,-999.0,-99.9,29.87,South,176,5.0,7.0,-999,-99.99,,,-99.99,,2013-03-02 05:52:00,
2013-03-01 21:02:00,31.0,-99.9,29.87,South,177,5.0,6.0,-999,-99.99,,,-99.99,,2013-03-02 06:02:00,
2013-03-01 21:11:00,-999.0,-99.9,29.88,South,180,5.0,6.0,-999,-99.99,,,-99.99,,2013-03-02 06:11:00,
2013-03-01 21:22:00,-999.0,-99.9,29.88,SSE,166,4.0,5.0,-999,-99.99,,,-99.99,,2013-03-02 06:22:00,
2013-03-01 21:32:00,30.0,-99.9,29.87,South,171,2.0,4.0,-999,-99.99,,,-99.99,,2013-03-02 06:32:00,
2013-03-01 21:42:00,-999.0,-99.9,29.88,WSW,237,1.0,2.0,-999,-99.99,,,-99.99,,2013-03-02 06:42:00,
2013-03-01 22:02:00,30.0,-99.9,29.88,SSE,162,3.0,4.0,-999,-99.99,,,-99.99,,2013-03-02 07:02:00,
2013-03-01 22:11:00,-999.0,-99.9,29.88,South,171,5.0,7.0,-999,-99.99,,,-99.99,,2013-03-02 07:11:00,
2013-03-01 22:22:00,-999.0,-99.9,29.88,SSE,166,4.0,7.0,-999,-99.99,,,-99.99,,2013-03-02 07:22:00,
2013-03-01 22:32:00,30.0,-99.9,29.89,SSE,163,5.0,6.0,-999,-99.99,,,-99.99,,2013-03-02 07:32:00,
2013-03-01 22:42:00,-999.0,-99.9,29.88,South,178,4.0,6.0,-999,-99.99,,,-99.99,,2013-03-02 07:42:00,
2013-03-01 22:52:00,-999.0,-99.9,29.89,NE,38,0.0,4.0,-999,-99.99,,,-99.99,,2013-03-02 07:52:00,
2013-03-01 23:01:00,29.0,-99.9,29.89,SSE,151,3.0,5.0,-999,-99.99,,,-99.99,,2013-03-02 08:01:00,
2013-03-01 23:11:00,-999.0,-99.9,29.90,South,177,6.0,7.0,-999,-99.99,,,-99.99,,2013-03-02 08:11:00,
2013-03-01 23:22:00,-999.0,-99.9,29.90,South,174,1.0,7.0,-999,-99.99,,,-99.99,,2013-03-02 08:22:00,
2013-03-01 23:32:00,29.0,-99.9,29.90,SSE,162,3.0,3.0,-999,-99.99,,,-99.99,,2013-03-02 08:32:00,
2013-03-01 23:43:00,-999.0,-99.9,29.91,South,170,3.0,4.0,-999,-99.99,,,-99.99,,2013-03-02 08:43:00,
2013-03-01 23:52:00,-999.0,-99.9,29.91,South,182,1.0,2.0,-999,-99.99,,,-99.99,,2013-03-02 08:52:00,